Location: Newark
(48.5156°N, 1.8989°W)
Time: 02:09:54
(UTC+00:00)

Transit 4A - Pass Details

Date: 02 December 2019
Orbit: 870 x 975 km, 66.8° (Epoch: 13 December)

Event Time Altitude Azimuth Distance (km) Brightness Sun altitude
Rises 20:41:15 0° 249° (WSW) 3,606 11.5 -43.2°
Reaches altitude 10° 20:44:06 10° 259° (W) 2,648 10.8 -43.6°
Enters shadow 20:46:12 20° 273° (W) 2,036 10.1 -43.9°
